Notices

What's New in latest Release from April 7th, 2021:

- Updated Glossary, including Speed of Maximum Gust, and Total Hourly Precipitation

- Updated national and regional climate services offices contacts and prices information

- Addition of station inventory lists for 1981-2010, 1971-2000, and 1961-1990 Normals.

If you haven't already, please take our survey and provide feedback about our website: https://eccc.sondage-survey.ca/f/LanguageSelection.aspx?s=442ca660-fcf1-47c0-95a9-59707d6fd709

Hourly Data Report for March 02, 2017

MIRAMICHI RCS
NEW BRUNSWICK

47°00'34.000" N
65°27'54.000" W
33.00 m
8100989
71744
ACQ

Download Data

Hourly Data (March 2017)
Hourly Data Report for March 2, 2017
TIME
LST
Temp Definition
°C
Dew Point Definition
°C
Rel Hum Definition
%
Precip. Amount Definition
mm

Wind Dir Definition
10's deg

Wind Spd Definition
km/h
Visibility Definition
km
Stn Press Definition
kPa
Hmdx Definition


Wind Chill Definition


Weather Definition


00:00 0.8 -0.1 94 0.7 6 11   98.54     LegendNANA
01:00 0.3 -0.2 97 0.3 6 6   98.51     LegendNANA
02:00 0.4 0.0 97 0.3 1 3   98.54     LegendNANA
03:00 0.3 -0.1 97 0.0 2 2   98.53     LegendNANA
04:00 0.2 -0.2 97 0.0 7 11   98.50     LegendNANA
05:00 0.1 -0.4 97 0.2 7 11   98.51     LegendNANA
06:00 -0.6 -1.3 95 0.0 7 23   98.46   -6 LegendNANA
07:00 -1.0 -1.6 95 0.0 6 16   98.48   -6 LegendNANA
08:00 -1.1 -1.9 94 2.6 6 18   98.46   -6 LegendNANA
09:00 -0.8 -1.7 94 0.6 5 14   98.35   -5 LegendNANA
10:00 -0.8 -1.8 93 0.9 6 15   98.27   -5 LegendNANA
11:00 -0.6 -1.5 94 0.4 5 12   98.26   -5 LegendNANA
12:00 -0.6 -1.8 91 0.5 4 11   98.21   -4 LegendNANA
13:00 -0.3 -1.6 91 0.4 5 11   98.13   -4 LegendNANA
14:00 0.1 -1.8 87 0.0 2 7   98.13     LegendNANA
15:00 -0.1 -2.0 87 0.0 1 8   98.12   -3 LegendNANA
16:00 -0.4 -2.4 86 0.0 4 8   98.16   -3 LegendNANA
17:00 -0.8 -1.7 93 0.6 1 4   98.30   -2 LegendNANA
18:00 -1.8 -2.5 95 0.9 11 10   98.40   -5 LegendNANA
19:00 -3.1 -4.0 93 1.4 9 12   98.58   -8 LegendNANA
20:00 -4.7 -9.0 72 0.0 30 30   98.83   -13 LegendNANA
21:00 -5.9 -9.6 75 0.2 29 28   99.01   -14 LegendNANA
22:00 -7.2 -10.6 77 0.0 29 28   99.20   -16 LegendNANA
23:00 -7.9 -11.3 77 0.0 29 31   99.38   -17 LegendNANA

Notes on Data Quality.

Legend

  • E = Estimated
  • M = Missing
  • NA = Not Available*
  • [empty] = Indicates an unobserved value
Date modified: